Location: Domont
(49.0278°N, 2.3264°E)
Time: 10:14:56
(UTC+00:00)

DIWATA 2B (PO-101) - Pass Details

Date: 05 July 2022
Orbit: 583 x 599 km, 98.0° (Epoch: 14 August)

Event Time Altitude Azimuth Distance (km) Brightness Sun altitude
Exits shadow 02:13:23 17° 201° (SSW) 1,532 ? -11.9°
Maximum altitude 02:16:12 38° 262° (W) 919 ? -11.6°
Drops below altitude 10° 02:20:11 10° 332° (NNW) 1,950 ? -11.2°
Sets 02:22:29 0° 340° (NNW) 2,857 ? -11.0°
